Regional Weather Roundup
Issued by NWS Charleston, SC

Current Version | Previous Version | Graphics & Text | Print | Product List | Glossary On
Versions: 1 2 3 4 5 6 7 8 9 10 11 12 13 14 15 16 17 18 19 20 21 22 23 24 25 26 27 28 29 30 31 32 33 34 35 36 37 38 39 40 41 42 43 44 45 46 47 48 49 50
000
ASUS42 KCHS 011911
RWRCHS

REGIONAL WEATHER ROUNDUP
NATIONAL WEATHER SERVICE CHARLESTON SC
200 PM EST SUN MAR 01 2015

NOTE: "FAIR" INDICATES FEW OR NO CLOUDS BELOW 12,000 FEET WITH NO
SIGNIFICANT WEATHER AND/OR OBSTRUCTIONS TO VISIBILITY.

NOT ALL STATIONS ARE QUALITY CONTROLLED BY THE NATIONAL
WEATHER SERVICE. USE DATA WITH CAUTION...ESPECIALLY
DEWPOINT OBSERVATIONS.

SCZ027-030-031-034>040-042>050-012000-
...SOUTHEAST SOUTH CAROLINA...

CITY           SKY/WX    TMP DP  RH WIND       PRES   REMARKS
N CHARLESTON   DRIZZLE   43  42  97 N8        30.42F FOG
WATERFRONT PRK   N/A     45 N/A N/A N9          N/A
MOUNT PLEASANT DRIZZLE   45  45 100 NW7       30.41F
PINOPOLIS      NOT AVBL
MONCKS CORNER  LGT RAIN  41  39  93 CALM      30.43F
SUMMERVILLE    CLOUDY    41  41 100 N6        30.44F FOG
BEAUFORT MCAS  CLOUDY    45  43  93 N8        30.41F
BEAUFORT ARPT  LGT RAIN  45  45 100 CALM      30.40F
HILTON HEAD IS CLOUDY    45  45 100 N7        30.42F
WALTERBORO     RAIN      43  43 100 N3        30.43F
ALLENDALE      CLOUDY    43  41  93 VRB3      30.42F FOG

...SOUTHERN MIDLANDS AND PEE DEE...

CITY           SKY/WX    TMP DP  RH WIND       PRES   REMARKS
GEORGETOWN     NOT AVBL
KINGSTREE      NOT AVBL
ORANGEBURG     CLOUDY    41  37  86 N5        30.43F
BARNWELL       CLOUDY    43  39  87 N3        30.44F
AIKEN          CLOUDY    39  39 100 N3        30.46F FOG
MANNING        DRIZZLE  N/A N/A N/A CALM      30.43F
COLUMBIA       CLOUDY    40  37  89 NE5       30.43F WCI  37
SUMTER         CLOUDY    39  36  87 NE6       30.42F WCI  35
FLORENCE       CLOUDY    38  35  89 NE6       30.44F WCI  33
MYRTLE BEACH   LGT RAIN  45  39  81 N10       30.45F FOG
N MYRTLE BEACH LGT RAIN  45  42  89 N9        30.42F FOG

$$

GAZ063-065-086>088-099>101-113>116-118-119-134>141-150-012000-
...SOUTHEAST GEORGIA...

CITY           SKY/WX    TMP DP  RH WIND       PRES   REMARKS
SAVANNAH ARPT  CLOUDY    46  44  93 N6        30.42F FOG
HUNTER AAF     CLOUDY    48  48  98 VRB3      30.38F
FORT STEWART   CLOUDY    48  45  87 NW5       30.39F
STATESBORO     CLOUDY    43  43 100 N5        30.41F
SYLVANIA       CLOUDY    43  43 100 NE6       30.43F
CLAXTON        CLOUDY    45  45 100 E5        30.41F

...CSRA...CENTRAL AND FAR SOUTHEAST GEORGIA...

CITY           SKY/WX    TMP DP  RH WIND       PRES   REMARKS
THOMSON        CLOUDY    41  41 100 NW5       30.48F
AUGUSTA-BUSH   CLOUDY    41  38  89 N3        30.44F FOG
AUGUSTA-DANIEL CLOUDY    43  38  82 VRB3      30.43F
SWAINSBORO     CLOUDY    46  43  87 NE5       30.42F
VIDALIA        CLOUDY    46  45  93 N5        30.41F
EASTMAN        CLOUDY    46  46 100 E3        30.43F FOG
HAZLEHURST     CLOUDY    48  48 100 CALM      30.39F
ALMA           NOT AVBL
WAYCROSS       CLOUDY    56  52  86 CALM      30.39F
JESUP          CLOUDY    52  50  93 E3        30.40F FOG
BAXLEY         CLOUDY    52  46  82 CALM      30.40F
BRUNSWICK      CLOUDY    54  50  87 N3        30.40F
SAINT SIMONS   CLOUDY    53  49  86 N6        30.39F

$$

SCZ027-028-034-036>038-045-046-048>050-GAZ119-141-012000-
...LAKE AND SUPPLEMENTAL COASTAL OBSERVATIONS...

STATION/POSITION TIME  TEMP    WIND        PRES    WAVE   SWELL
                       AIR SEA DIR/SP/G            HT/PER HT/PER/DIR
                 (UTC) (F)     (DEG/KT/KT) (MB)    (FT/S) (FT/S/D)
UPR LAKE MARION  NOT AVBL
WINYAH BAY       NOT AVBL
LAKE MURRAY      1800   38     360/  2/  3 1031.2F
ACE BASIN NERRS  NOT AVBL
FORT PULASKI     1800   45 49  320/  8/ 10 1031.2F
SAPELO ISLAND    1800   50      10/  8     1030.0F

$$

ANZ835-935-AMZ111-154-330-350-352-354-370-450-454-472-012000-
...C-MAN AND BUOY OBSERVATIONS...

STATION/POSITION TIME  TEMP    WIND        PRES    WAVE   SWELL
                       AIR SEA DIR/SP/G            HT/PER HT/PER/DIR
                 (UTC) (F)     (DEG/KT/KT) (MB)    (FT/S) (FT/S/D)
BUOY 41004       1850      68  350/ 14/ 16 1028.6F   7/ 7   5/ 7
BUOY 41008       1850   47 53   20/ 16/ 17 1028.8F   6/ 9   5/100/ 9
FOLLY BEACH CMAN 1900   44     340/  7/  9 1030.0F
CAPERS NEARSHORE NOT AVBL
FRIPP NEARSHORE  1800   44      10/ 14/ 16 1029.2F


STATION/POSITION TIME  TEMP    WIND        PRES    WAVE   SWELL
                       AIR SEA DIR/SP/G            HT/PER HT/PER/DIR
                 (UTC) (F)     (DEG/KT/KT) (MB)    (FT/S) (FT/S/D)
5E ST. MARYS GA  1821      52                N/A     6/ 8   2/ 80/11
FRYING PAN BUOY  1850   66 61  160/ 16/ 17 1028.9F   7/ 6   3/ 90/ 8
BUOY 41025       NOT AVBL
CAPE LOOKOUT NC  1800   57     140/  9/ 10 1030.4F
BUOY 41002       1850   68 72  120/ 17/ 19 1030.5F   9/ 9   5/ 60/ 9
BUOY 41010       1820   71 74   90/ 17/ 21 1027.4F
ST AUGUSTINE FL  1900   51     360/ 16/ 17 1028.5F


$$



USA.gov is the U.S. government's official web portal to all federal, state and local government web resources and services.